Previsão horária em Abdul-Zavod

Hoje, 17 Abril, Sábado

Tempo Temperatura Precipitação Vento Pressão Humidade
00:00 +9°C° 0 mm 5 m/s 754 mmHg 86%
01:00 +10°C° 0 mm 4 m/s 754 mmHg 87%
02:00 +8°C° 0 mm 4 m/s 754 mmHg 88%
03:00 +8°C° 0 mm 3 m/s 755 mmHg 90%
04:00 +7°C° 0 mm 4 m/s 755 mmHg 88%
05:00 +7°C° 0 mm 4 m/s 755 mmHg 86%
06:00 +7°C° 0 mm 4 m/s 755 mmHg 85%
07:00 +10°C° 0 mm 4 m/s 755 mmHg 77%
08:00 +10°C° 0 mm 5 m/s 755 mmHg 70%
09:00 +13°C° 0 mm 5 m/s 755 mmHg 63%
10:00 +14°C° 0 mm 5 m/s 755 mmHg 58%
11:00 +15°C° 0 mm 5 m/s 755 mmHg 54%
12:00 +16°C° 0 mm 5 m/s 755 mmHg 50%
13:00 +16°C° 0 mm 5 m/s 755 mmHg 48%
14:00 +16°C° 0 mm 5 m/s 754 mmHg 46%
15:00 +17°C° 0 mm 5 m/s 754 mmHg 45%
16:00 +16°C° 0 mm 5 m/s 754 mmHg 47%
17:00 +15°C° 0 mm 4 m/s 754 mmHg 50%
18:00 +14°C° 0 mm 4 m/s 754 mmHg 52%
19:00 +12°C° 0 mm 4 m/s 754 mmHg 53%
20:00 +11°C° 0 mm 4 m/s 754 mmHg 54%
21:00 +10°C° 0 mm 4 m/s 755 mmHg 55%
22:00 +8°C° 0 mm 4 m/s 754 mmHg 55%
23:00 +8°C° 0 mm 5 m/s 754 mmHg 55%

Amanhã, 18 Abril, Domingo

Tempo Temperatura Precipitação Vento Pressão Humidade
00:00 +7°C° 0 mm 5 m/s 754 mmHg 56%
01:00 +6°C° 0 mm 4 m/s 754 mmHg 57%
02:00 +7°C° 0 mm 3 m/s 754 mmHg 58%
03:00 +5°C° 0 mm 3 m/s 754 mmHg 59%
04:00 +5°C° 0 mm 3 m/s 754 mmHg 59%
05:00 +5°C° 0 mm 4 m/s 754 mmHg 60%
06:00 +5°C° 0 mm 4 m/s 754 mmHg 60%
07:00 +7°C° 0 mm 5 m/s 754 mmHg 54%
08:00 +8°C° 0 mm 5 m/s 754 mmHg 48%
09:00 +10°C° 0 mm 6 m/s 754 mmHg 42%
10:00 +12°C° 0 mm 5 m/s 754 mmHg 40%
11:00 +13°C° 0 mm 5 m/s 754 mmHg 37%
12:00 +14°C° 0 mm 5 m/s 754 mmHg 34%
13:00 +14°C° 0 mm 5 m/s 754 mmHg 34%
14:00 +14°C° 0 mm 5 m/s 754 mmHg 33%
15:00 +14°C° 0 mm 5 m/s 754 mmHg 33%
16:00 +13°C° 0 mm 5 m/s 754 mmHg 37%
17:00 +13°C° 0 mm 5 m/s 754 mmHg 42%
18:00 +12°C° 0 mm 5 m/s 754 mmHg 47%
19:00 +9°C° 0 mm 5 m/s 754 mmHg 52%
20:00 +8°C° 0 mm 6 m/s 755 mmHg 57%
21:00 +7°C° 0 mm 6 m/s 755 mmHg 62%
22:00 +5°C° 0 mm 6 m/s 755 mmHg 63%
23:00 +5°C° 0 mm 6 m/s 755 mmHg 65%

Depois de amanhã, 19 Abril, Segunda-feira

Tempo Temperatura Precipitação Vento Pressão Humidade
00:00 +4°C° 0 mm 6 m/s 756 mmHg 66%
01:00 +3°C° 0 mm 6 m/s 756 mmHg 69%
02:00 +3°C° 0 mm 6 m/s 756 mmHg 73%
03:00 +2°C° 0 mm 6 m/s 756 mmHg 76%
04:00 +2°C° 0 mm 6 m/s 756 mmHg 75%
05:00 +2°C° 0 mm 7 m/s 756 mmHg 74%
06:00 0°C° 0 mm 7 m/s 756 mmHg 73%
07:00 +2°C° 0 mm 7 m/s 757 mmHg 69%
08:00 +3°C° 0 mm 7 m/s 757 mmHg 64%
09:00 +4°C° 0 mm 8 m/s 757 mmHg 60%
10:00 +4°C° 0 mm 8 m/s 757 mmHg 59%
11:00 +4°C° 0 mm 7 m/s 758 mmHg 58%
12:00 +4°C° 0 mm 7 m/s 758 mmHg 57%
13:00 +4°C° 0 mm 7 m/s 758 mmHg 59%
14:00 +4°C° 0 mm 7 m/s 758 mmHg 60%
15:00 +4°C° 0 mm 7 m/s 758 mmHg 62%
16:00 +4°C° 0 mm 6 m/s 759 mmHg 63%
17:00 +4°C° 0 mm 6 m/s 759 mmHg 64%
18:00 +3°C° 0 mm 5 m/s 759 mmHg 65%
19:00 +3°C° 0 mm 5 m/s 759 mmHg 64%
20:00 +3°C° 0 mm 5 m/s 759 mmHg 62%
21:00 +4°C° 0 mm 4 m/s 759 mmHg 61%
22:00 +3°C° 0 mm 5 m/s 759 mmHg 58%
23:00 +2°C° 0 mm 5 m/s 760 mmHg 55%

20 Abril, Terça-feira

Tempo Temperatura Precipitação Vento Pressão Humidade
00:00 +2°C° 0 mm 6 m/s 760 mmHg 53%
01:00 +1°C° 0 mm 6 m/s 760 mmHg 53%
02:00 -1°C° 0 mm 6 m/s 760 mmHg 53%
03:00 -2°C° 0 mm 6 m/s 761 mmHg 53%
04:00 -2°C° 0 mm 6 m/s 761 mmHg 52%
05:00 -2°C° 0 mm 6 m/s 761 mmHg 52%
06:00 -2°C° 0 mm 6 m/s 762 mmHg 51%
07:00 -1°C° 0 mm 7 m/s 762 mmHg 47%
08:00 +2°C° 0 mm 7 m/s 761 mmHg 42%
09:00 +2°C° 0 mm 8 m/s 761 mmHg 37%
10:00 +4°C° 0 mm 7 m/s 761 mmHg 35%
11:00 +5°C° 0 mm 7 m/s 761 mmHg 33%
12:00 +6°C° 0 mm 7 m/s 761 mmHg 31%
13:00 +8°C° 0 mm 7 m/s 761 mmHg 30%
14:00 +8°C° 0 mm 7 m/s 761 mmHg 29%
15:00 +9°C° 0 mm 7 m/s 760 mmHg 28%
16:00 +8°C° 0 mm 6 m/s 760 mmHg 30%
17:00 +8°C° 0 mm 6 m/s 760 mmHg 32%
18:00 +7°C° 0 mm 6 m/s 760 mmHg 34%
19:00 +6°C° 0 mm 5 m/s 760 mmHg 37%
20:00 +5°C° 0 mm 5 m/s 760 mmHg 39%
21:00 +3°C° 0 mm 5 m/s 760 mmHg 41%
22:00 +3°C° 0 mm 5 m/s 760 mmHg 43%
23:00 +2°C° 0 mm 6 m/s 760 mmHg 45%

21 Abril, Quarta-feira

Tempo Temperatura Precipitação Vento Pressão Humidade
00:00 +2°C° 0 mm 6 m/s 760 mmHg 46%
01:00 +1°C° 0 mm 6 m/s 760 mmHg 48%
02:00 +1°C° 0 mm 6 m/s 760 mmHg 50%
03:00 -1°C° 0 mm 6 m/s 760 mmHg 52%
04:00 -1°C° 0 mm 6 m/s 760 mmHg 52%
05:00 -1°C° 0 mm 6 m/s 760 mmHg 51%
06:00 0°C° 0 mm 7 m/s 760 mmHg 51%
07:00 +2°C° 0 mm 7 m/s 760 mmHg 46%
08:00 +4°C° 0 mm 8 m/s 759 mmHg 41%
09:00 +5°C° 0 mm 9 m/s 759 mmHg 36%
10:00 +6°C° 0 mm 8 m/s 759 mmHg 33%
11:00 +9°C° 0 mm 8 m/s 759 mmHg 31%
12:00 +10°C° 0 mm 8 m/s 759 mmHg 28%
13:00 +11°C° 0 mm 8 m/s 759 mmHg 28%
14:00 +11°C° 0 mm 8 m/s 759 mmHg 28%
15:00 +11°C° 0 mm 8 m/s 758 mmHg 29%
16:00 +11°C° 0 mm 7 m/s 758 mmHg 32%
17:00 +10°C° 0 mm 6 m/s 759 mmHg 36%
18:00 +10°C° 0 mm 5 m/s 759 mmHg 39%
19:00 +9°C° 0 mm 5 m/s 759 mmHg 41%
20:00 +10°C° 0 mm 4 m/s 759 mmHg 43%
21:00 +8°C° 0 mm 4 m/s 759 mmHg 45%
22:00 +8°C° 0 mm 4 m/s 759 mmHg 47%
23:00 +8°C° 0 mm 3 m/s 759 mmHg 49%

22 Abril, Quinta-feira

Tempo Temperatura Precipitação Vento Pressão Humidade
00:00 +8°C° 0 mm 3 m/s 759 mmHg 51%
01:00 +8°C° 0 mm 3 m/s 759 mmHg 55%
02:00 +7°C° 0 mm 2 m/s 759 mmHg 59%
03:00 +7°C° 0 mm 2 m/s 759 mmHg 63%
04:00 +7°C° 0.1 mm 3 m/s 760 mmHg 65%
05:00 +7°C° 0.1 mm 3 m/s 760 mmHg 68%
06:00 +6°C° 0.1 mm 4 m/s 760 mmHg 71%
07:00 +6°C° 0 mm 4 m/s 760 mmHg 69%
08:00 +6°C° 0 mm 5 m/s 760 mmHg 67%
09:00 +6°C° 0 mm 5 m/s 760 mmHg 65%
10:00 +6°C° 0 mm 5 m/s 760 mmHg 65%
11:00 +6°C° 0 mm 5 m/s 760 mmHg 65%
12:00 +6°C° 0 mm 5 m/s 761 mmHg 65%
13:00 +6°C° 0.1 mm 4 m/s 761 mmHg 64%
14:00 +6°C° 0.1 mm 4 m/s 761 mmHg 64%
15:00 +7°C° 0.1 mm 3 m/s 761 mmHg 63%
16:00 +5°C° 0 mm 4 m/s 761 mmHg 65%
17:00 +5°C° 0 mm 4 m/s 761 mmHg 67%
18:00 +5°C° 0 mm 4 m/s 761 mmHg 69%
19:00 +5°C° 0.2 mm 3 m/s 761 mmHg 75%
20:00 +6°C° 0.2 mm 2 m/s 761 mmHg 82%
21:00 +6°C° 0.2 mm 1 m/s 761 mmHg 89%
22:00 +6°C° 0 mm 1 m/s 761 mmHg 89%
23:00 +6°C° 0 mm 1 m/s 760 mmHg 90%
Mostrar mais